Wind_Speed
22 23 25 28 27 26 25 25 24 24 25 25 26 27 28 27 27 27 28 27 26 25 26 27 28 28 24 21 21 20 20 21 20 18 18 17 16 17 16 17 17 18 18 19 19 19 19 19 18 17 17 17 16 16 15 16 16 17 17 16 16 17 17 17 17 18 19 19 18 18 19 20 20 19 20 20 20 21 20 19 18 18 18 19 21
24 24 25 27 27 26 26 26 24 25 25 26 26 27 28 28 28 28 28 26 25 26 26 28 28 24 21 21 20 20 21 21 20 18 18 17 16 16 17 17 17 19 19 19 20 19 20 19 18 18 17 17 17 17 16 16 16 16 15 15 16 17 17 17 17 18 19 20 19 19 20 21 21 20 20 20 20 21 21 20 18 18 19 19 19
25 24 24 26 27 26 26 26 26 26 26 26 26 27 27 28 28 28 27 25 25 26 27 27 24 21 20 20 20 21 21 20 19 17 17 18 17 16 17 17 17 19 20 19 20 20 20 19 19 18 17 17 18 18 17 17 17 15 13 16 17 17 17 17 18 18 19 19 18 19 20 21 22 21 20 20 20 22 22 21 19 20 20 19 19
25 24 24 26 26 26 26 26 26 27 26 26 26 27 27 27 28 27 26 25 25 26 26 24 23 21 19 19 20 20 19 18 18 17 18 18 17 17 17 18 18 19 20 19 20 21 20 19 18 17 17 16 18 18 18 17 15 15 14 16 18 17 18 19 20 20 19 18 16 17 19 21 22 20 19 19 20 22 22 21 20 20 19 18 18
24 25 24 25 24 25 27 27 27 27 27 27 26 27 28 28 28 27 26 25 25 24 24 23 22 22 20 20 20 19 17 17 18 19 19 17 17 18 17 18 19 20 19 19 20 20 19 19 18 16 16 15 16 16 17 17 15 15 14 17 18 17 17 19 21 21 19 18 15 15 16 19 20 18 18 18 19 21 20 20 19 19 18 17 17
24 24 24 24 24 24 27 27 27 29 28 28 28 27 28 28 28 27 26 26 24 23 22 21 21 21 21 21 19 18 17 17 19 19 19 18 18 19 18 19 20 20 19 19 19 19 18 18 17 15 15 14 15 14 14 15 16 16 15 16 16 17 16 17 22 21 19 17 14 14 14 16 17 17 16 16 17 18 17 17 18 17 17 16 15
24 24 23 24 23 24 28 27 27 29 28 28 28 27 27 27 27 27 26 25 24 22 22 21 19 20 21 20 18 18 18 18 20 20 19 19 20 20 19 19 20 20 19 19 19 18 18 17 16 15 14 14 13 12 13 13 14 16 16 15 14 15 15 16 21 20 16 14 12 12 13 13 14 15 14 14 15 15 14 15 17 17 16 16 15
23 23 23 23 22 25 29 27 26 28 28 27 27 27 26 26 26 26 25 25 24 23 22 20 19 20 21 20 19 20 20 21 22 21 19 18 20 20 19 19 19 19 18 18 17 17 16 15 14 13 13 12 11 11 12 12 12 14 15 15 14 14 15 16 18 17 13 12 12 12 12 13 13 12 12 12 12 13 12 11 13 15 15 14 14
23 22 23 23 22 26 29 27 27 27 27 26 26 25 25 25 25 25 25 25 24 23 21 19 19 19 20 20 21 21 21 21 22 22 20 19 20 19 18 19 19 18 18 17 16 16 15 14 13 12 12 11 11 10 11 11 11 12 14 15 15 14 14 15 15 13 12 11 11 11 11 12 11 11 11 11 11 11 11 11 11 11 12 12 12
23 22 22 22 23 28 29 28 27 27 26 25 25 24 25 25 25 25 24 25 24 22 20 19 19 20 20 21 22 22 21 20 22 23 22 20 20 18 18 18 18 17 17 17 16 15 14 13 12 12 11 11 10 10 10 10 10 11 12 14 15 16 16 16 15 11 10 11 11 11 12 12 12 12 11 11 10 10 11 11 10 11 12 12 12
22 22 21 22 24 28 29 29 28 28 27 25 24 24 24 24 24 24 24 24 23 21 21 21 21 21 21 22 23 23 22 21 21 23 22 21 20 19 19 18 17 16 16 16 15 15 14 13 12 11 11 11 10 10 10 10 10 11 12 12 15 18 17 16 14 11 12 13 13 13 13 14 13 12 10 11 10 11 12 11 11 13 13 13 13
21 21 21 23 25 27 28 27 28 28 27 26 25 24 24 24 23 24 23 23 23 23 22 21 21 20 20 21 22 23 23 21 20 21 22 20 20 19 18 17 16 16 16 16 15 15 14 12 12 12 11 11 11 11 12 12 12 12 12 13 15 16 16 15 12 11 13 13 13 13 14 14 14 13 12 12 12 12 12 11 12 13 12 12 12
22 21 21 23 24 26 27 26 27 27 26 25 24 24 24 23 23 23 23 22 23 23 21 20 18 18 18 19 22 23 22 20 19 19 20 20 20 19 17 17 16 16 16 16 15 13 13 13 12 12 11 10 11 13 13 13 13 13 14 14 16 16 16 15 11 11 13 12 12 13 14 14 14 14 13 13 13 13 12 12 13 13 13 13 12
22 21 22 23 23 25 26 26 26 25 25 24 24 23 22 22 22 22 23 23 22 22 20 18 17 17 18 19 22 21 20 20 18 18 18 18 19 19 17 16 15 15 15 14 14 12 13 13 12 11 10 10 12 13 14 14 13 14 14 15 16 16 16 13 11 12 13 12 13 13 13 14 14 14 14 14 14 13 12 13 13 13 14 14 13
22 22 23 23 23 24 24 25 24 24 24 24 23 21 20 21 21 23 24 24 22 21 20 19 18 18 18 19 20 20 19 19 17 16 17 17 17 18 16 15 15 15 15 13 13 13 14 13 11 10 9 9 12 13 14 13 13 13 14 15 15 15 14 10 9 11 12 12 13 13 14 14 14 13 13 13 13 13 13 13 13 13 13 13 13
21 23 23 23 24 23 22 23 23 24 24 23 22 20 20 20 21 25 25 23 21 20 20 19 19 18 17 19 19 19 18 17 16 15 15 15 17 17 16 15 15 14 14 13 13 13 13 12 10 9 9 9 11 13 13 12 12 12 12 13 13 13 13 10 9 10 10 12 12 13 14 14 13 12 13 13 13 13 13 14 13 13 13 13 14
21 22 22 23 23 22 22 22 22 23 23 22 21 20 20 20 22 24 24 21 19 19 19 19 19 18 18 18 18 17 16 15 15 14 13 14 16 16 15 14 13 13 13 13 13 13 12 11 9 9 9 9 11 13 12 12 11 11 11 11 13 13 15 12 9 10 10 11 11 12 13 13 12 13 13 13 13 13 13 13 13 13 13 14 14
20 21 22 24 24 22 23 23 21 22 22 21 20 20 19 20 22 23 22 20 19 18 18 19 19 18 18 19 17 15 14 14 14 13 13 13 14 15 14 14 13 13 13 12 12 12 12 10 9 8 8 8 10 12 12 11 10 10 10 11 12 14 15 13 9 11 11 10 11 12 13 13 12 12 12 12 12 12 13 13 13 13 13 13 12
20 21 22 23 24 23 23 23 23 22 21 20 20 20 19 20 21 22 21 20 19 17 18 18 18 18 19 17 16 15 14 14 14 14 13 13 13 13 14 14 13 12 12 12 12 12 12 10 9 9 8 7 9 11 12 11 10 9 9 10 12 14 15 12 10 10 10 10 11 12 13 13 12 12 12 12 12 12 13 12 12 12 12 12 12
19 20 21 22 23 23 24 24 24 23 21 19 19 20 19 19 20 21 21 20 18 17 18 17 18 19 18 17 15 15 14 15 15 14 14 13 13 12 12 13 13 12 12 12 11 12 11 10 10 10 9 8 7 9 11 11 10 9 8 9 12 14 12 10 10 10 10 11 12 12 13 13 12 11 11 12 12 12 12 12 11 11 12 12 12
19 19 21 22 22 23 23 22 22 22 19 17 18 19 18 18 18 19 20 19 17 18 18 18 18 17 17 17 15 14 14 15 15 14 15 14 13 12 12 13 12 12 12 12 12 12 12 10 10 9 10 9 8 7 9 10 9 9 8 10 12 11 9 9 10 10 10 11 11 12 12 12 11 11 11 11 11 11 11 12 11 11 11 11 11
18 19 20 21 22 22 21 20 20 20 18 17 16 18 19 17 17 18 18 17 17 18 18 18 17 17 17 16 15 14 13 14 15 15 14 14 13 12 12 12 12 12 12 12 11 11 12 10 10 9 9 10 9 6 7 10 9 9 9 10 9 7 8 8 9 10 10 11 11 11 11 11 10 10 10 10 10 10 10 11 10 10 10 10 10
18 19 20 21 22 21 20 19 20 19 18 17 15 17 18 18 18 18 17 16 16 17 17 17 16 17 18 16 16 15 13 13 15 16 15 14 13 11 12 11 11 11 10 10 10 10 11 10 9 9 9 10 9 7 7 10 10 10 9 7 7 7 8 8 8 9 9 10 11 11 11 11 11 10 9 9 9 10 10 9 9 9 9 9 9
18 19 19 21 21 20 20 19 20 20 18 17 16 17 17 17 18 17 17 17 16 14 16 17 16 16 17 18 19 17 14 14 15 16 15 14 12 11 11 10 9 9 9 8 8 8 8 9 9 9 9 8 8 8 7 9 10 11 8 6 7 8 7 7 8 9 9 10 10 10 11 11 11 10 10 9 8 9 9 8 9 9 9 10 10
19 19 19 21 21 20 20 20 20 20 18 17 16 16 17 17 16 17 19 19 17 15 16 16 15 16 17 19 19 16 15 16 15 15 14 12 12 11 10 8 8 8 8 7 7 8 7 9 10 9 8 7 7 7 7 8 9 10 8 7 8 8 7 7 8 9 9 10 9 9 9 10 10 10 9 8 8 9 8 7 8 8 9 10 9
19 19 19 21 21 21 21 21 20 19 18 17 16 16 17 15 15 17 18 18 18 16 14 15 15 15 17 20 19 16 14 14 13 12 11 11 11 10 8 8 8 7 7 6 7 8 8 9 9 9 8 8 7 7 7 7 8 9 8 8 8 8 8 7 8 9 9 10 9 8 8 9 9 9 8 7 8 8 7 8 8 8 8 8 8
19 19 19 21 21 21 22 22 21 20 18 17 16 15 16 14 15 17 15 14 14 12 11 13 14 15 18 19 17 14 13 12 10 10 10 10 10 8 7 7 7 7 7 7 7 7 7 7 8 8 8 8 8 7 7 7 8 8 8 8 8 7 7 7 8 9 10 11 10 8 8 9 9 8 8 7 7 7 7 8 8 8 8 8 8
18 19 19 20 21 22 21 21 21 20 18 17 16 14 15 15 14 15 14 12 12 10 9 10 13 16 18 17 14 13 12 11 10 10 10 10 9 8 7 6 6 6 7 6 6 6 6 6 6 7 7 7 8 8 7 7 8 8 8 8 7 7 7 7 8 8 10 11 10 9 8 9 9 8 8 8 8 8 8 7 7 7 7 7 7
18 18 18 19 21 20 20 21 20 20 19 17 15 15 15 14 14 13 12 12 10 10 9 9 12 14 15 14 12 11 11 10 10 10 10 10 9 8 7 6 5 5 5 5 6 6 6 6 6 6 6 7 7 7 7 8 8 8 8 8 7 7 7 8 8 8 9 10 10 9 8 8 8 8 9 9 9 8 7 6 6 6 7 7 7
15 16 16 16 20 20 19 18 17 17 18 16 16 16 15 14 13 12 12 12 9 9 9 9 11 11 12 12 11 11 10 9 10 9 10 10 10 9 8 7 5 4 4 5 6 6 6 6 5 5 6 6 7 7 7 8 8 8 7 7 8 7 7 7 7 8 9 9 10 9 9 8 7 8 8 8 8 8 7 6 6 6 7 8 7
11 13 15 14 17 17 17 17 16 16 16 15 16 16 15 14 13 12 11 11 10 10 9 9 10 11 11 11 11 10 9 9 9 9 10 10 9 9 8 7 6 5 4 5 6 6 6 5 5 4 5 6 7 7 7 8 8 8 8 7 7 7 7 7 6 8 8 8 9 9 9 8 7 9 8 8 8 7 7 7 7 7 7 6 6
5 5 8 12 13 14 17 18 18 18 16 15 16 15 15 14 13 12 11 11 12 10 9 9 10 10 11 11 11 10 9 9 10 9 9 9 9 9 8 7 6 5 4 4 5 6 5 5 5 5 5 6 7 7 6 7 7 8 8 7 7 6 6 6 6 7 6 6 7 7 8 7 8 9 9 9 7 7 7 7 7 7 7 7 7
3 4 2 11 14 15 17 18 18 17 15 14 15 15 14 13 12 11 11 12 12 9 9 9 9 10 11 11 11 10 9 9 10 9 9 9 8 8 7 7 6 6 5 5 5 6 6 6 6 5 6 7 7 7 7 7 7 7 7 7 7 6 5 6 6 6 6 6 6 7 8 7 7 8 9 9 7 7 7 7 8 8 8 7 8
8 6 4 11 17 19 20 18 18 17 15 15 15 15 14 12 12 11 11 13 11 9 10 9 10 11 11 11 10 10 9 9 10 10 9 8 8 7 7 7 7 7 7 6 5 6 6 6 6 6 6 7 8 8 7 7 7 6 6 6 6 5 5 6 6 6 6 6 6 6 7 7 7 7 8 8 7 7 7 9 9 9 7 6 6
20 12 7 13 18 20 20 18 17 17 17 17 16 16 15 12 11 11 12 12 10 10 10 10 10 10 10 10 10 10 10 9 9 10 9 8 7 7 7 7 7 7 6 6 5 5 6 6 6 7 7 7 8 7 7 7 6 6 6 5 6 6 6 6 7 7 7 6 7 6 6 6 6 7 7 7 7 7 7 9 10 8 6 4 4
29 23 15 16 18 18 20 20 18 17 17 17 17 17 16 13 11 12 13 12 11 11 10 10 10 10 10 10 9 10 9 9 9 9 8 7 7 7 7 7 7 7 6 5 5 5 6 6 6 6 7 8 8 7 7 7 6 6 5 5 5 6 7 8 8 7 7 7 7 7 6 6 6 7 8 8 8 8 7 7 8 7 5 3 3
28 30 24 23 23 21 22 23 21 18 17 17 17 17 16 13 12 13 13 11 11 11 11 11 11 10 9 9 10 10 9 9 9 9 8 7 7 6 7 7 7 6 6 5 5 5 6 6 6 6 7 8 8 7 7 7 7 6 6 6 6 6 6 7 6 6 6 7 7 6 7 6 6 7 8 8 9 8 7 6 5 4 3 2 2
23 29 30 29 28 27 25 24 22 19 18 18 17 18 17 14 13 13 12 11 11 10 11 11 10 10 9 9 10 10 9 9 9 9 8 7 6 6 7 8 7 5 5 5 5 5 6 6 7 6 7 7 8 8 7 7 7 7 7 6 6 6 5 5 5 5 6 6 7 8 8 8 7 7 7 8 8 8 7 6 4 3 2 2 2
22 28 31 30 29 31 28 24 21 19 20 19 17 18 17 15 14 12 12 11 11 11 11 11 10 10 9 9 10 10 9 9 9 9 8 7 7 7 7 7 7 5 5 5 5 5 6 6 7 7 7 6 7 7 8 8 8 7 7 7 6 6 5 5 4 5 5 6 8 9 8 8 9 8 8 7 7 7 7 5 3 4 3 2 2
24 26 27 29 31 31 29 24 21 20 21 20 18 19 17 16 14 14 14 13 12 12 11 11 10 10 9 10 10 10 9 9 9 9 8 8 7 7 7 7 7 6 5 5 5 5 6 7 8 8 8 7 7 8 9 9 9 8 8 7 6 5 4 4 5 5 4 5 8 9 7 6 6 6 7 7 6 5 4 3 2 4 3 3 3
20 20 20 25 29 29 27 25 22 21 23 22 21 21 19 18 17 16 16 14 13 13 12 11 10 10 10 10 10 9 9 9 9 9 9 8 7 7 7 7 7 7 6 6 5 5 6 7 8 9 9 8 8 8 9 10 10 9 8 8 7 5 5 5 5 4 4 4 5 6 5 5 4 5 5 5 5 4 3 3 2 3 3 3 4
17 17 16 18 22 23 23 24 23 23 24 24 22 22 20 19 18 17 16 15 14 13 13 12 11 10 10 10 10 9 9 9 9 9 9 8 8 8 8 8 8 7 6 6 6 6 7 7 8 8 8 8 8 8 10 10 9 9 8 8 7 6 6 5 4 4 4 4 3 4 3 3 3 4 4 3 3 4 3 3 3 4 4 4 4
14 15 15 17 19 20 21 22 22 22 23 23 23 21 18 17 16 16 15 14 13 13 12 11 10 10 11 10 9 9 9 9 9 9 9 8 8 8 8 8 8 7 7 7 7 7 8 8 8 8 8 8 7 9 10 7 7 9 8 6 6 5 4 4 4 3 4 5 4 4 4 4 3 3 3 4 4 3 3 4 5 5 5 5 5
15 16 18 19 20 20 21 22 22 22 20 21 21 19 18 17 14 13 13 12 12 12 11 11 11 10 11 10 9 9 9 9 9 9 8 8 7 8 8 8 8 8 8 8 8 9 9 9 8 8 8 8 8 9 8 5 6 8 5 3 4 4 3 4 5 4 4 5 5 5 4 4 4 3 3 4 4 3 4 5 6 6 6 7 6
17 17 20 22 20 20 22 21 21 20 18 19 21 19 20 19 14 13 13 11 12 13 12 12 12 12 11 11 10 10 9 9 9 8 8 8 8 8 8 9 9 9 9 9 9 10 10 10 9 9 9 8 8 9 7 5 6 6 3 1 3 3 2 6 7 4 4 5 4 5 4 3 4 4 3 4 4 4 5 6 6 7 7 8 8
16 17 20 22 21 21 22 22 21 21 18 19 21 21 21 20 18 17 16 14 13 13 14 14 14 13 12 11 11 10 10 9 9 8 8 8 8 8 9 10 10 10 9 9 9 9 10 11 10 9 9 8 8 8 8 6 7 5 3 2 1 2 3 8 8 4 5 5 4 3 4 5 4 4 4 4 5 5 5 6 7 8 7 8 8
17 17 18 20 21 22 23 23 23 23 20 19 22 23 22 20 19 19 17 15 15 14 14 15 14 13 12 12 11 11 10 9 9 8 8 8 8 9 9 9 9 9 8 9 9 9 10 11 10 9 9 8 7 7 8 7 7 6 5 3 1 3 5 8 6 5 6 5 5 6 7 6 6 6 5 6 7 7 6 7 8 9 9 8 8
18 18 18 20 22 22 22 22 24 25 22 21 23 23 23 20 19 18 17 16 15 15 15 14 13 13 13 13 12 11 10 9 9 8 8 8 8 8 9 10 9 9 8 9 9 9 9 9 9 9 8 8 7 6 7 8 8 7 6 5 3 3 7 7 5 5 5 5 5 6 7 8 8 8 8 7 8 8 7 7 8 9 9 9 9
19 19 19 21 23 22 21 23 24 24 23 22 22 22 23 22 20 19 18 17 16 15 15 14 14 14 14 13 12 11 10 9 8 8 8 8 8 8 9 9 9 9 9 9 10 9 9 9 9 9 8 7 7 6 6 7 8 7 7 8 6 6 7 7 6 6 4 6 6 5 8 9 9 8 8 8 7 7 7 7 8 8 9 9 9
18 19 19 20 22 23 22 23 22 21 22 24 23 21 21 20 19 19 18 17 16 16 16 15 15 14 14 13 12 11 10 10 9 9 9 8 8 9 9 9 9 9 9 9 10 10 10 9 9 9 8 7 7 6 6 7 7 6 7 9 8 8 7 6 6 7 7 7 6 8 10 10 9 8 8 8 8 8 8 8 8 8 8 8 8
17 18 18 20 22 23 23 22 20 20 23 25 24 22 21 18 16 17 18 17 17 17 17 17 16 15 15 14 13 11 10 10 9 9 9 9 9 9 9 9 9 8 9 9 10 10 10 10 9 8 8 8 7 7 6 6 6 7 7 8 7 6 3 2 3 5 4 5 7 9 10 10 10 10 9 8 8 9 9 8 8 8 7 7 7
Wind_Direction
153 151 149 158 158 158 159 157 156 153 151 150 152 155 159 160 160 160 159 158 155 152 149 146 145 146 144 144 143 139 140 140 138 135 134 130 128 128 127 128 126 124 122 122 121 119 117 114 113 106 99 97 99 99 99 100 103 103 92 87 89 87 91 94 96 99 101 100 95 90 84 83 82 82 91 93 92 93 91 87 87 86 84 85 87
150 147 148 156 157 158 157 156 154 151 150 149 151 153 155 156 158 158 157 155 152 150 148 146 146 147 146 146 145 140 138 139 140 137 135 131 132 133 130 130 126 124 123 124 123 121 117 115 114 110 102 98 98 99 100 105 109 104 93 96 97 91 90 95 98 98 100 100 97 93 85 82 81 83 93 96 92 92 91 90 89 86 83 81 83
144 143 145 153 156 156 155 153 150 149 149 148 150 151 152 153 155 155 154 152 149 149 147 148 149 147 145 146 146 142 139 140 140 137 136 134 135 134 132 132 129 127 127 128 125 121 118 117 117 113 108 102 98 96 96 104 116 113 102 103 104 99 94 97 101 100 99 99 98 95 87 82 81 85 91 92 89 90 90 90 89 87 86 84 81
142 141 142 150 154 153 152 150 148 148 147 147 148 148 149 150 151 152 152 150 148 149 149 150 149 147 144 143 143 141 140 140 139 137 137 137 138 135 135 135 132 131 131 130 124 121 121 121 119 115 111 104 99 97 94 97 110 117 116 113 108 104 100 102 104 100 99 100 97 95 92 85 80 82 86 88 89 89 89 87 88 88 86 84 81
140 141 143 148 150 152 152 148 147 146 147 146 146 147 149 149 150 151 151 149 149 150 149 149 149 148 143 142 142 141 141 140 139 139 139 139 139 137 137 136 136 135 133 129 124 124 125 125 121 117 114 108 101 97 95 95 99 105 118 122 115 110 107 106 105 99 97 100 102 100 96 88 82 82 82 83 84 85 85 83 83 83 81 80 78
140 141 144 146 148 151 151 148 145 145 146 146 145 146 149 151 152 152 152 151 151 151 148 147 149 148 143 143 143 142 142 142 142 142 141 141 139 137 138 137 137 135 133 131 127 127 127 127 124 121 118 115 108 99 95 96 98 101 111 125 124 118 114 112 107 99 92 94 102 100 92 88 85 80 76 76 75 77 78 79 79 78 77 74 73
141 141 144 146 147 151 150 147 145 146 146 147 147 148 150 153 154 155 154 154 153 150 147 147 149 148 144 144 145 145 145 144 145 144 145 147 144 140 139 137 137 137 138 135 130 129 129 128 126 124 123 121 115 105 100 97 100 103 107 119 129 130 124 120 112 100 94 94 99 98 94 94 89 80 75 75 74 73 72 75 76 74 74 72 70
143 143 146 146 148 152 150 148 146 146 146 147 147 149 153 155 157 158 158 157 154 151 150 150 150 150 148 149 150 147 145 145 145 143 145 147 143 141 138 139 142 142 139 135 131 131 130 128 128 126 125 126 123 115 109 103 100 103 106 110 119 133 135 131 115 97 93 97 97 96 96 97 95 89 78 78 77 68 65 64 66 69 74 76 74
146 144 148 146 149 153 151 150 148 147 146 146 146 148 153 156 158 159 160 157 154 153 151 151 152 154 152 153 151 145 145 146 143 142 145 144 142 141 141 144 146 143 137 135 134 132 130 128 128 128 128 128 126 122 116 112 106 104 107 108 111 124 135 133 114 92 92 97 96 94 95 97 99 100 87 88 92 82 78 73 68 70 77 82 81
146 145 147 146 150 154 152 152 149 148 148 146 145 148 152 156 158 158 158 155 154 153 151 151 153 154 153 157 155 147 147 147 145 145 148 147 144 143 145 147 145 141 138 137 136 134 131 130 129 129 130 127 123 123 120 116 110 107 109 112 114 117 120 114 99 90 98 98 94 89 91 94 97 105 97 89 95 96 92 88 86 78 75 78 79
147 145 144 147 154 154 153 153 151 150 150 148 147 149 153 155 157 157 156 155 154 152 152 152 154 157 158 163 159 150 148 147 149 150 151 151 148 145 147 148 143 141 141 139 138 137 134 134 137 136 132 126 120 120 121 117 112 111 111 115 119 118 108 94 89 91 96 95 95 94 92 91 92 102 100 89 91 94 89 86 87 82 79 79 79
148 146 144 151 156 155 154 154 152 152 151 150 149 150 153 154 156 156 156 155 154 152 153 155 158 162 164 164 156 150 148 147 150 151 152 153 149 147 148 146 146 146 145 144 141 139 141 144 145 140 131 124 121 121 120 117 115 114 112 116 121 116 100 89 92 96 96 96 95 95 91 89 92 96 98 94 93 94 91 86 85 85 83 81 82
149 147 146 150 156 157 157 156 154 153 152 150 150 150 151 152 154 156 157 155 155 154 155 157 159 161 163 159 152 149 147 148 150 149 151 152 151 150 150 150 152 150 145 143 142 141 146 150 146 135 128 125 126 124 120 118 116 114 112 115 119 113 100 94 98 97 95 95 91 91 88 88 93 95 95 94 93 94 92 87 87 86 81 78 80
151 148 147 149 156 160 158 158 156 154 153 151 149 148 148 149 152 155 155 154 156 158 158 158 154 153 155 153 148 148 148 149 148 147 149 150 154 156 155 155 155 151 145 142 143 147 149 149 142 130 123 123 129 128 122 119 117 113 112 114 115 109 98 95 98 97 95 93 91 90 89 91 94 94 95 94 93 94 91 88 88 84 78 77 77
153 150 149 150 156 161 159 157 157 155 153 151 149 148 147 148 150 151 152 152 156 160 161 159 154 151 151 150 148 148 149 148 146 147 147 145 153 158 157 156 154 151 148 145 145 151 155 151 141 130 123 121 127 129 123 119 116 112 111 113 113 104 94 94 99 97 94 92 91 90 90 94 96 95 96 95 94 93 90 89 89 85 83 82 81
155 151 150 151 154 157 160 159 158 156 153 151 149 148 149 149 148 150 152 154 157 161 164 161 156 154 153 151 149 148 146 146 147 149 147 144 151 160 161 154 150 149 149 149 149 153 157 152 141 134 128 124 125 128 125 119 116 111 108 109 110 105 99 99 100 96 94 93 92 92 93 96 98 95 94 94 94 93 92 92 93 93 89 84 81
156 153 151 152 153 155 160 162 161 157 153 151 150 151 152 151 149 151 154 155 159 163 164 163 158 156 156 154 151 149 147 147 149 150 148 148 150 158 164 157 150 149 151 155 155 155 157 153 143 135 130 126 126 128 127 120 116 111 107 103 105 108 104 98 95 95 93 91 92 93 95 98 98 95 94 94 94 93 93 93 95 94 89 84 82
158 156 154 155 156 156 158 160 160 157 154 152 154 154 155 154 153 153 154 156 160 163 162 161 158 157 158 156 153 151 149 148 149 148 149 152 150 152 158 157 154 153 156 159 161 158 154 152 142 134 129 124 125 129 130 124 117 112 108 101 100 100 95 90 90 94 91 87 88 92 97 100 98 95 94 93 93 93 93 91 92 91 90 88 86
160 160 159 160 160 159 158 160 159 158 157 156 158 159 159 159 157 155 155 158 160 162 161 159 158 160 159 155 152 150 149 149 148 148 148 153 152 151 154 155 158 157 158 161 161 158 153 151 142 134 132 123 122 128 132 128 122 116 110 105 93 81 78 82 89 92 88 84 88 95 102 103 98 95 94 93 92 92 92 92 93 94 92 91 88
162 163 164 164 164 163 160 160 159 158 156 157 160 159 161 162 160 157 156 159 159 161 159 157 159 159 157 153 152 148 148 149 147 147 146 148 149 151 153 151 153 156 159 164 164 160 154 150 142 137 136 128 119 124 131 133 130 122 115 104 83 69 70 81 86 86 85 87 92 97 103 104 100 98 94 93 93 93 94 92 91 93 93 91 90
165 167 169 166 166 165 159 157 158 157 155 157 159 158 161 161 160 157 155 158 160 159 158 158 158 157 158 154 150 146 146 146 144 145 144 143 145 149 152 149 151 156 162 167 171 168 159 151 144 140 136 131 122 120 129 136 136 131 120 97 79 74 78 83 84 84 86 89 93 99 104 105 103 100 95 96 95 94 95 94 93 93 94 94 93
169 170 171 169 167 163 157 155 158 159 156 156 156 158 160 158 157 157 159 161 161 160 157 157 156 158 159 155 149 147 146 146 145 145 143 140 141 146 151 151 154 162 169 172 176 173 165 157 149 144 139 135 130 122 129 140 145 141 120 93 84 90 88 86 88 85 86 88 96 110 114 109 102 98 97 97 95 95 95 97 100 99 101 101 96
173 173 171 172 168 162 157 157 160 161 159 156 155 156 156 155 154 156 161 160 160 163 161 158 161 162 159 159 155 148 146 148 149 147 144 143 142 147 152 154 158 163 167 169 173 173 170 166 157 150 142 140 139 134 141 149 152 147 126 101 102 106 97 95 92 88 90 90 97 111 111 108 107 105 103 97 97 100 96 96 100 100 100 100 96
174 175 171 172 168 162 161 160 161 163 163 159 157 155 155 156 152 156 163 162 163 167 170 164 165 167 163 165 158 148 150 147 146 145 141 141 141 145 148 148 152 150 146 150 159 162 165 167 164 155 146 151 152 146 152 157 158 155 147 131 124 115 107 101 95 94 96 97 103 107 101 100 103 107 109 105 103 103 101 101 102 101 101 97 94
175 177 173 173 169 163 164 164 163 166 165 161 159 157 157 155 152 163 168 168 170 173 177 169 167 173 167 162 153 149 150 142 141 142 138 139 139 139 138 136 139 137 132 139 148 146 151 158 161 159 157 170 172 161 161 162 164 166 160 144 132 123 116 105 104 105 102 104 110 114 109 102 98 96 101 106 109 107 106 108 103 100 101 98 96
178 179 175 175 172 165 165 166 166 168 166 161 161 157 156 152 152 165 169 171 174 177 180 171 168 170 163 156 149 147 144 139 143 142 138 140 140 140 141 138 138 139 140 145 147 146 154 158 160 166 172 181 182 176 172 170 173 172 161 146 137 130 123 114 115 115 110 110 113 116 116 112 104 91 84 91 108 115 111 108 106 97 94 97 98
182 181 177 176 174 170 167 164 165 168 165 163 160 154 154 151 151 160 164 169 172 177 179 171 165 160 159 155 145 142 141 143 144 137 136 136 138 141 142 140 139 142 142 141 141 147 154 155 161 169 175 180 181 183 179 176 176 170 159 150 143 134 128 120 118 118 116 115 117 115 113 117 113 95 83 84 102 114 111 110 109 97 91 96 96
186 183 178 174 174 172 167 165 164 164 161 158 157 154 155 152 152 158 161 165 165 171 173 163 159 157 159 154 143 142 144 145 140 136 136 134 138 140 140 142 140 143 141 140 143 143 141 144 154 160 170 175 177 184 182 175 173 167 160 154 145 136 129 122 118 120 122 121 123 120 113 116 116 104 90 89 101 106 104 108 111 108 103 104 107
190 182 177 174 174 171 165 164 161 158 154 153 156 156 155 152 152 158 162 164 162 165 165 152 151 155 155 150 145 145 145 146 143 141 138 137 141 141 144 147 148 154 150 151 150 141 137 139 146 152 162 170 173 180 180 173 171 167 161 154 143 136 131 128 126 123 123 123 124 119 108 106 114 112 95 93 104 107 106 108 112 114 105 99 100
194 182 179 177 175 172 165 160 157 155 152 154 161 158 154 154 155 161 163 163 163 157 155 153 152 154 151 148 150 147 146 148 145 144 143 142 145 147 149 150 157 164 158 154 150 141 140 140 143 150 157 165 168 174 179 171 170 168 164 157 146 142 138 134 132 126 124 124 122 115 104 101 113 117 107 101 104 106 108 112 111 105 94 83 78
205 186 182 181 174 169 158 152 154 154 153 159 161 159 156 155 159 164 164 163 161 154 153 157 153 153 151 150 152 151 149 149 149 150 149 148 150 153 152 154 158 163 160 157 155 147 142 143 141 143 152 161 160 165 175 167 165 166 166 163 153 151 147 138 134 130 132 133 129 122 111 107 115 118 115 113 108 103 100 102 100 95 91 84 80
257 213 183 176 158 145 144 149 158 158 160 165 161 160 158 157 163 164 165 165 158 152 156 159 153 153 153 153 155 156 154 153 156 156 154 154 154 155 155 156 157 159 161 157 162 156 148 148 141 136 140 151 156 157 160 158 161 163 166 169 161 157 148 141 140 136 141 140 135 134 124 119 121 120 117 115 108 100 100 105 106 103 102 99 95
285 284 199 156 141 138 151 155 159 161 163 166 162 161 159 160 166 163 164 166 160 153 158 161 156 153 153 156 159 160 159 158 159 159 157 156 154 156 154 152 152 154 157 157 164 162 157 156 147 141 138 144 151 148 147 151 156 159 163 166 162 161 149 148 147 140 143 142 144 147 140 137 130 124 119 113 101 94 104 116 120 118 112 106 98
184 250 237 161 151 153 161 158 157 164 169 169 164 163 162 164 165 164 166 164 162 160 161 166 160 155 157 160 161 163 165 163 161 159 159 158 155 156 155 153 152 152 157 160 163 161 160 161 157 152 144 145 148 149 151 148 149 151 151 155 158 159 155 157 152 146 148 144 150 152 146 146 139 134 126 117 110 107 116 125 127 125 118 114 108
176 188 194 176 163 154 160 162 163 169 173 171 169 169 167 166 166 165 166 163 166 166 164 168 163 160 162 163 166 167 168 167 164 162 161 162 161 161 161 159 155 154 160 165 164 162 159 160 163 157 149 146 143 148 152 142 140 137 135 144 151 156 160 160 154 154 155 149 149 151 148 147 146 147 133 125 132 133 137 136 133 134 133 129 119
174 162 152 168 167 161 167 170 173 174 171 169 171 174 169 165 165 164 165 165 168 167 167 170 166 165 166 167 170 169 170 169 166 167 166 168 169 167 164 162 161 159 160 162 164 162 158 157 160 160 156 148 138 138 139 132 128 125 129 141 146 161 166 160 158 158 157 155 153 148 151 150 149 152 140 135 139 143 157 151 136 133 128 116 93
172 157 149 164 172 180 183 176 178 178 171 170 172 176 174 165 162 164 168 168 168 169 170 170 167 167 168 168 170 171 173 170 169 171 171 175 174 164 162 166 166 163 161 162 166 164 159 158 155 158 159 151 140 134 134 129 126 125 128 134 144 162 166 154 154 156 159 164 163 157 156 150 145 151 149 146 140 142 164 166 144 129 110 89 60
173 165 160 167 175 185 190 183 182 180 174 172 171 177 177 167 161 163 167 168 171 174 172 170 170 170 169 168 170 171 174 173 173 174 175 180 172 164 167 171 168 167 169 164 161 159 155 159 155 152 155 151 144 141 139 131 127 127 127 133 142 149 147 143 147 160 166 170 178 179 169 155 154 155 148 145 142 141 152 159 149 130 103 65 43
181 179 170 168 175 182 187 186 183 179 176 171 170 176 174 164 162 163 164 170 176 174 171 172 173 173 171 169 169 172 177 177 178 177 179 180 171 168 170 171 172 173 176 167 160 156 153 159 157 152 151 147 143 141 138 131 127 126 128 133 135 136 135 137 150 165 170 180 186 185 173 161 163 158 144 141 143 135 138 148 136 117 105 71 62
182 187 181 175 178 182 183 185 182 176 173 170 170 176 171 163 164 169 169 175 179 172 172 175 175 177 174 171 171 176 181 182 183 180 179 179 174 173 171 174 180 182 185 179 172 166 163 165 159 152 150 143 140 140 140 137 129 123 126 127 126 128 131 137 157 167 175 193 189 182 167 156 161 154 142 140 135 122 129 145 115 107 105 69 66
184 194 199 188 182 181 180 181 177 172 174 173 173 176 174 167 170 177 177 178 176 169 172 176 175 177 174 173 176 181 185 185 186 182 179 180 176 175 173 177 185 189 192 187 179 174 174 173 160 154 153 147 144 147 150 145 135 128 126 125 117 110 114 128 148 159 172 190 190 190 169 152 162 157 140 126 118 113 121 123 93 95 100 72 62
187 196 207 197 185 180 177 177 173 172 177 176 175 178 178 173 174 181 181 177 173 170 173 174 173 173 171 175 180 186 189 188 187 184 182 182 181 180 174 174 182 186 186 182 179 178 180 178 166 158 154 153 151 154 161 158 150 148 144 138 125 107 104 117 130 142 161 167 177 192 174 167 174 149 137 130 119 110 98 90 76 66 71 72 73
183 189 195 192 186 181 176 175 173 173 176 176 177 178 177 174 176 181 180 175 171 170 171 169 169 170 171 176 182 186 189 190 188 185 183 183 185 182 170 169 176 178 181 180 179 183 184 180 175 166 156 159 160 161 172 182 168 159 161 160 147 131 122 130 133 134 161 168 168 184 187 177 167 145 146 138 122 108 88 77 72 63 62 71 79
179 181 183 183 184 183 178 177 175 173 174 178 177 175 173 171 173 175 174 170 164 163 163 164 167 168 172 177 180 183 185 187 184 180 180 180 181 177 166 167 174 178 183 184 183 185 183 180 180 174 165 165 165 167 181 201 174 162 176 178 155 167 165 151 143 125 155 174 175 192 197 168 157 178 164 126 117 107 86 78 75 69 71 78 83
185 183 180 181 184 185 182 179 177 174 174 179 177 172 168 166 166 165 164 161 158 162 166 168 170 170 174 177 177 179 180 182 180 178 178 174 175 174 168 170 175 180 182 183 183 181 179 181 181 177 176 174 169 173 185 205 189 178 213 215 152 183 177 157 153 123 132 158 169 190 193 182 176 176 155 124 127 110 88 86 84 77 77 81 88
189 186 181 184 185 185 184 180 178 179 177 178 178 172 168 168 169 167 167 166 165 171 175 173 171 171 174 172 170 173 176 178 178 177 175 171 174 174 171 173 174 177 179 178 179 178 179 181 179 180 185 185 178 177 183 199 197 190 224 237 185 261 188 167 166 137 131 135 129 135 146 168 174 164 154 134 133 122 103 103 99 95 91 86 89
187 183 179 183 184 184 186 181 180 183 181 179 178 173 171 173 173 172 173 173 173 176 177 174 169 168 168 164 165 169 172 175 175 175 173 170 174 173 171 171 171 173 175 174 176 180 184 179 176 182 188 188 188 186 183 187 191 192 214 225 247 264 207 183 177 154 148 130 97 85 98 129 137 134 138 129 131 128 111 108 107 106 103 96 93
181 181 179 179 180 180 181 180 183 186 184 180 179 176 176 175 175 176 176 177 178 174 172 171 167 164 164 162 163 166 170 173 171 172 171 167 171 172 170 170 170 170 171 174 175 176 179 172 172 181 187 187 189 197 190 188 196 195 196 212 221 207 189 190 205 190 162 140 122 99 96 112 114 116 124 125 130 124 107 107 110 108 107 106 102
175 179 180 178 177 174 176 180 184 187 184 181 179 178 178 177 178 180 178 178 177 171 168 167 165 163 162 161 162 163 166 170 171 173 170 165 167 171 171 170 170 169 171 174 173 173 173 168 172 180 183 186 188 200 198 195 208 200 187 203 201 176 181 186 203 213 176 151 151 135 125 123 115 117 122 120 122 122 116 113 113 111 108 105 104
170 175 175 177 178 175 177 182 183 185 182 180 179 178 178 179 181 180 179 178 173 169 166 165 165 164 161 161 162 163 164 168 171 173 170 168 169 170 170 169 169 170 172 173 172 173 173 169 173 178 178 183 186 196 200 197 209 209 196 203 199 189 193 182 189 205 186 165 156 147 151 145 128 126 129 126 129 133 129 120 117 116 111 107 106
169 172 171 175 180 180 182 184 183 183 180 177 177 178 177 177 178 179 178 175 170 169 166 164 165 164 163 162 162 164 163 165 167 167 168 168 167 167 167 167 168 169 171 174 174 174 174 170 171 174 177 184 187 192 200 201 207 209 205 211 221 222 208 138 196 223 203 158 146 150 158 151 139 139 142 141 141 140 136 130 127 121 116 114 111
Height
779 781 783 785 787 790 792 793 795 795 796 797 798 799 801 803 804 806 808 809 810 811 812 814 815 816 817 818 818 819 820 821 822 823 824 825 825 826 826 827 827 827 828 828 829 829 830 830 830 830 829 829 829 829 828 828 828 828 828 828 827 827 827 827 828 828 829 829 830 830 830 830 829 829 829 829 829 829 830 830 830 829 830 830 831
778 782 784 786 788 790 792 793 795 796 797 798 799 800 802 803 805 807 808 810 811 812 814 815 816 818 818 819 820 820 822 823 824 824 825 826 827 827 827 828 828 829 829 830 830 831 831 831 831 831 831 831 830 830 830 830 829 829 829 829 828 828 828 829 829 830 830 831 831 831 831 831 831 831 830 830 831 831 831 832 831 831 831 832 832
779 783 785 787 789 791 793 794 795 796 798 799 800 801 803 804 806 808 809 811 812 813 815 816 818 819 819 820 821 822 823 824 825 826 826 827 828 828 829 829 829 830 830 831 831 832 832 832 832 832 832 832 832 831 831 831 830 830 830 830 830 830 830 830 831 831 831 832 832 832 832 832 833 833 832 832 833 833 833 833 833 833 833 834 834
780 783 786 788 790 792 793 794 796 797 798 800 801 802 804 805 807 808 810 812 813 814 815 817 818 819 820 821 822 824 824 825 826 826 827 828 829 830 830 830 831 831 832 832 832 832 833 833 833 833 833 833 833 833 832 832 832 831 831 831 831 831 831 831 832 832 832 833 834 834 834 834 834 835 834 835 835 835 835 835 835 835 835 835 835
782 784 787 789 792 793 794 795 797 798 799 800 801 803 804 806 807 809 810 812 814 815 816 818 819 820 821 822 824 825 826 826 827 827 828 829 830 830 831 831 832 832 832 833 833 833 834 834 834 834 834 834 834 834 834 833 833 832 832 832 833 833 833 833 833 833 834 834 835 836 836 836 837 837 837 837 837 838 837 838 837 837 836 836 836
782 785 788 790 793 794 794 796 797 798 799 801 802 803 805 806 808 809 811 812 814 816 817 818 819 821 822 823 825 825 826 827 827 828 829 830 830 831 831 832 833 833 834 834 834 834 834 835 835 835 835 835 835 835 835 834 834 833 833 833 834 834 834 835 835 835 835 835 836 837 838 838 839 839 839 839 839 839 839 839 839 839 838 838 838
783 786 789 791 794 795 795 796 798 799 800 801 802 804 806 807 808 809 811 813 815 816 817 819 820 821 823 824 825 826 827 827 828 829 830 830 831 831 832 833 834 835 835 835 835 835 835 836 836 836 836 836 836 836 836 835 835 835 835 834 835 835 836 836 836 836 835 836 837 838 839 839 840 841 841 841 841 841 841 840 840 840 840 841 841
784 787 789 792 794 795 796 797 798 799 800 802 803 804 806 808 809 810 811 813 815 816 818 819 820 822 823 824 825 827 827 828 829 829 830 831 831 832 833 834 835 835 835 836 836 836 837 837 837 837 837 837 837 837 837 836 836 835 835 835 836 836 837 837 837 837 836 838 839 839 840 840 842 843 843 843 843 842 842 842 841 841 841 842 842
785 788 790 792 794 795 797 798 799 800 801 802 803 805 806 808 809 810 812 814 815 817 818 820 821 822 823 825 826 827 827 828 829 830 831 831 832 833 834 835 836 836 836 837 837 837 838 838 839 839 839 838 838 838 838 837 837 837 836 836 837 837 838 838 838 838 839 840 840 841 841 842 843 844 845 844 844 843 843 843 843 843 842 843 843
786 788 791 793 795 796 797 798 799 800 801 802 804 805 806 808 809 811 813 814 816 818 819 820 821 823 824 825 826 827 828 829 830 830 831 832 833 834 835 836 837 837 837 838 838 838 839 839 840 840 840 839 839 839 839 838 838 838 838 838 838 839 839 840 839 840 841 841 842 842 842 843 844 845 846 845 845 845 845 844 844 844 844 844 844
787 789 792 794 795 796 798 799 800 801 802 803 804 805 807 808 810 812 814 815 817 818 820 821 822 823 824 825 827 828 829 830 830 831 832 833 834 835 836 837 838 838 838 839 839 839 839 840 840 840 840 840 840 840 840 840 840 840 839 839 839 840 840 840 841 842 842 842 843 844 844 844 845 846 847 847 847 846 846 846 846 846 846 846 846
788 790 792 795 796 797 799 800 800 802 803 804 805 806 807 809 811 812 815 816 818 819 820 821 823 824 825 826 827 828 829 830 831 832 832 833 835 836 837 837 838 839 839 840 840 840 840 840 840 841 841 841 841 840 841 841 841 841 841 840 840 841 840 840 843 844 843 844 845 845 846 846 847 847 848 848 848 848 848 848 848 848 848 847 847
788 790 793 795 797 798 799 800 801 803 803 805 806 807 809 810 812 813 815 817 819 820 821 822 823 825 825 826 828 829 830 831 832 832 833 834 835 836 837 838 839 839 840 840 841 841 841 841 841 841 842 842 842 841 842 842 842 842 842 842 842 842 841 842 844 845 844 845 846 846 847 847 848 848 849 849 849 849 849 849 849 849 849 849 849
788 790 793 795 798 799 800 802 802 803 805 806 807 808 810 811 812 814 816 818 820 821 822 823 824 825 826 828 829 830 830 831 832 833 833 834 835 837 838 839 839 840 840 841 842 842 842 842 842 842 843 843 843 843 843 843 843 843 843 843 843 843 843 844 846 846 846 846 847 848 848 849 849 850 850 850 850 850 850 850 850 851 850 850 850
789 790 793 796 798 800 802 803 804 805 806 807 808 809 811 812 814 815 817 819 820 822 823 824 825 826 827 829 830 830 831 832 833 833 834 835 836 838 838 839 840 841 841 842 842 842 843 843 843 843 843 844 844 844 844 844 844 845 845 844 845 844 844 846 847 847 847 848 848 849 849 850 850 851 851 851 851 851 851 851 851 852 852 852 851
789 791 794 796 798 801 803 804 805 806 807 808 809 810 812 813 815 816 818 820 821 822 824 825 826 827 828 829 830 831 832 833 833 834 835 836 837 838 839 840 841 842 842 843 843 843 843 844 844 844 844 844 844 845 845 846 846 846 846 846 846 845 845 847 848 848 848 849 850 850 851 851 851 852 852 852 852 852 852 852 852 852 852 853 852
790 792 794 796 799 801 803 805 806 807 808 809 810 811 813 814 816 817 819 820 822 823 824 826 827 828 829 830 831 832 833 833 834 835 835 837 838 839 840 841 842 843 843 844 844 844 845 845 845 845 845 845 845 846 846 847 848 848 848 848 848 847 846 848 849 849 850 850 851 852 852 853 853 853 853 853 853 853 853 853 853 853 853 854 854
791 793 794 796 799 801 803 805 807 808 809 810 811 812 813 815 816 818 819 821 822 824 825 826 828 829 830 831 832 832 833 834 835 835 836 837 839 840 840 841 842 843 844 844 845 845 846 846 847 847 846 846 847 847 848 848 849 849 850 849 850 849 848 849 851 851 851 852 852 853 853 854 854 854 854 854 854 853 854 854 854 854 854 854 855
792 793 795 796 798 801 802 804 806 808 809 810 812 813 814 816 817 818 820 821 823 824 825 827 828 829 830 831 832 832 833 834 835 836 837 838 839 840 841 842 843 844 845 845 846 846 846 847 848 848 848 848 848 848 849 849 850 851 851 851 851 851 850 851 852 852 852 853 853 854 854 854 855 855 855 855 855 854 855 855 855 855 855 855 856
792 793 795 796 798 800 801 803 805 806 809 810 812 814 815 816 818 819 820 822 823 825 826 827 828 829 830 831 832 832 833 834 835 837 838 839 840 841 841 842 843 844 845 846 846 847 847 848 848 849 849 849 849 850 850 851 851 852 852 853 852 852 852 853 853 853 854 854 855 855 855 856 856 856 856 856 856 856 856 856 856 856 856 856 856
792 793 794 796 797 799 800 803 804 806 808 810 812 814 816 817 819 820 821 823 824 825 826 827 828 829 830 831 832 833 834 834 836 837 838 840 840 841 842 842 844 844 845 846 846 847 847 848 849 850 850 850 850 851 851 852 852 853 853 853 853 854 855 855 855 855 855 856 856 856 857 857 857 857 857 857 857 857 857 857 857 857 857 857 857
791 792 794 795 797 799 800 802 804 806 808 810 812 813 816 817 819 821 822 823 824 825 826 827 829 829 830 831 832 833 833 834 836 838 839 840 841 841 842 843 844 844 845 846 846 847 848 849 850 850 851 851 851 852 852 852 853 854 854 854 854 856 857 856 856 856 856 857 857 858 858 858 858 858 858 858 858 858 858 858 858 858 858 857 857
789 791 793 794 796 798 800 802 804 806 808 810 812 813 816 817 819 821 822 823 824 825 826 827 828 829 830 831 831 832 833 834 836 838 839 840 841 842 842 843 844 845 845 846 847 847 848 849 850 851 851 852 852 853 853 853 854 854 855 855 856 857 857 857 857 857 858 858 859 859 859 859 859 859 859 859 859 859 859 859 858 858 858 858 858
788 789 791 793 795 797 800 802 804 806 808 810 812 813 816 818 819 820 821 823 824 825 825 825 827 828 828 830 830 832 833 834 836 838 839 840 841 842 842 843 844 845 846 847 847 848 849 850 850 851 852 853 853 853 854 855 854 855 856 856 857 857 858 858 858 858 859 859 860 859 860 860 860 860 860 860 860 860 860 860 859 859 859 859 859
787 788 790 792 794 796 799 801 803 805 807 809 811 814 816 818 819 819 820 821 823 824 824 824 826 827 828 830 831 832 833 834 837 838 840 841 841 842 843 844 845 846 847 847 848 848 849 850 850 851 852 853 854 854 855 855 855 856 856 857 857 857 858 858 858 859 860 860 860 860 860 861 861 861 861 861 861 861 861 861 861 860 860 860 860
786 787 789 791 793 795 797 799 802 804 806 808 811 813 816 817 818 819 820 821 822 823 823 824 827 828 830 831 831 832 833 834 837 838 840 841 842 843 844 845 846 846 847 847 848 848 849 850 850 851 852 853 853 854 854 855 855 856 857 857 857 858 858 859 859 859 860 861 861 861 861 862 862 862 862 862 862 862 862 862 862 862 861 861 861
786 787 789 791 792 793 795 797 800 803 805 807 811 813 815 817 819 820 821 822 823 823 823 825 827 830 832 832 832 832 833 835 836 838 840 841 842 843 844 845 845 846 846 847 848 848 849 850 850 851 851 852 853 854 854 855 855 856 857 857 857 858 858 859 859 860 860 861 861 862 862 862 863 863 863 862 862 863 863 863 863 863 863 863 863
785 787 788 790 791 792 794 796 798 802 805 807 811 813 815 817 819 821 822 823 824 824 824 825 828 830 832 833 833 833 834 835 836 838 839 841 842 843 844 844 845 846 846 847 847 848 849 849 850 850 851 852 852 853 853 854 855 856 857 857 857 858 859 859 859 860 861 861 862 862 862 863 863 863 864 863 863 863 863 864 864 864 864 864 864
786 787 788 789 790 792 794 796 799 802 805 808 811 813 815 817 820 821 822 823 824 825 826 826 828 830 832 833 833 834 834 836 837 838 840 841 842 843 844 844 845 846 846 847 847 848 849 849 850 850 851 851 852 852 853 854 855 856 857 857 858 858 859 859 860 860 861 862 862 862 863 863 864 864 864 864 864 864 864 864 864 864 864 864 865
787 788 789 789 789 792 795 798 801 804 807 810 812 813 815 818 820 822 823 824 825 825 826 828 829 830 831 833 833 834 835 836 837 838 840 841 842 843 844 844 845 845 846 846 847 848 848 849 850 850 850 851 851 852 852 854 855 856 856 857 858 858 859 859 860 860 861 862 863 863 863 864 864 865 865 865 865 865 865 865 865 865 865 865 865
789 790 790 790 791 794 797 801 804 806 809 811 812 814 816 818 821 822 823 824 825 825 827 828 830 831 832 833 833 834 835 836 837 839 840 841 842 843 844 845 845 845 846 846 847 847 848 849 849 850 850 850 851 852 852 853 854 855 856 857 858 858 859 860 860 860 861 861 862 863 863 864 864 865 865 865 865 865 865 865 866 866 866 866 866
793 792 793 793 793 796 800 802 804 806 809 811 812 814 816 819 821 822 823 824 825 826 827 829 830 831 832 833 834 835 835 836 837 838 840 841 842 843 844 845 845 845 846 846 847 847 848 849 849 849 850 850 851 851 852 853 854 855 856 857 858 858 859 860 860 861 861 860 862 863 863 864 864 864 865 865 866 866 866 866 866 867 867 867 867
796 795 795 796 796 798 800 802 804 806 808 811 812 815 817 819 821 822 823 824 825 826 827 829 830 831 832 833 834 835 835 836 837 838 840 841 842 843 844 844 845 845 846 846 847 847 848 849 849 849 849 850 851 852 853 853 854 855 856 857 858 859 859 860 861 861 861 861 861 862 863 864 864 864 865 865 866 866 866 867 867 868 868 868 868
791 796 797 797 797 797 800 802 803 806 808 810 812 815 817 819 821 822 823 824 825 827 828 829 830 831 832 833 834 835 836 836 837 838 840 841 842 843 844 844 845 845 846 847 847 847 848 848 849 849 849 850 851 852 852 853 854 855 857 857 858 859 859 860 861 861 862 862 862 862 863 864 864 865 865 865 866 866 867 867 867 868 868 868 868
779 790 796 798 799 799 801 802 804 806 808 810 812 815 817 819 821 822 823 824 826 827 828 829 830 831 832 833 834 835 836 837 837 838 839 841 842 843 844 844 844 845 846 846 847 847 848 848 848 849 849 850 851 852 852 854 855 856 857 857 858 859 859 859 860 861 862 862 862 863 863 863 864 865 865 866 866 866 867 867 868 868 869 869 868
773 781 791 797 800 802 802 802 804 806 808 809 812 815 817 819 821 822 823 824 826 826 828 829 830 831 832 833 834 835 836 837 837 838 839 840 842 843 843 844 844 845 846 846 847 847 847 848 848 849 849 850 851 852 853 854 855 856 857 857 858 858 858 859 859 860 861 862 863 863 863 864 864 864 865 866 866 866 867 867 868 868 868 869 869
777 776 783 793 798 801 802 800 803 806 807 809 812 814 816 818 820 822 823 824 825 826 828 829 830 831 832 833 834 834 836 836 837 838 839 840 841 842 843 843 844 845 845 846 847 847 847 848 848 849 849 850 851 852 853 854 855 856 857 858 858 858 857 858 859 860 861 862 863 863 863 863 864 864 864 865 866 866 867 868 868 868 869 869 869
783 780 778 784 791 797 800 800 802 805 806 808 811 814 815 817 819 821 823 824 825 827 828 829 830 831 832 833 833 834 835 836 837 838 839 840 841 842 842 843 844 845 846 846 847 847 847 848 848 849 850 851 851 852 854 854 856 857 858 858 859 859 858 859 860 861 862 862 862 862 862 863 863 864 865 866 866 866 867 868 868 869 869 869 869
784 785 781 781 787 794 797 800 802 804 806 807 810 813 814 816 818 821 823 825 826 827 828 829 830 831 832 833 833 834 835 836 837 838 839 840 840 841 842 843 844 845 846 847 847 847 847 848 848 849 850 851 852 853 854 855 856 857 858 859 859 860 860 860 861 862 862 863 862 862 862 863 863 864 865 866 866 866 867 868 868 869 869 869 869
782 785 784 782 785 791 795 798 801 802 805 807 809 812 813 815 818 821 823 825 825 826 827 828 830 831 832 832 833 833 835 836 837 838 838 839 840 841 842 843 844 845 846 847 847 847 848 849 849 849 850 851 852 853 854 855 856 857 859 859 860 860 861 861 862 862 863 863 862 862 862 863 864 864 865 866 866 867 867 868 869 869 869 869 869
782 785 786 784 784 788 792 795 798 801 803 806 808 810 812 814 817 819 822 824 825 825 827 828 829 830 831 832 832 833 835 836 837 837 838 839 839 840 842 843 844 845 846 847 847 848 848 849 849 850 851 852 853 854 854 855 856 858 858 859 860 861 861 862 862 863 863 863 863 863 863 863 864 865 865 866 867 868 869 869 870 870 870 870 869
782 785 786 787 788 789 792 794 797 800 802 805 807 809 811 813 815 818 820 822 823 824 826 827 828 829 831 832 832 833 834 835 836 837 838 838 839 840 841 842 844 845 846 847 847 848 849 849 850 850 851 852 853 854 854 854 855 856 857 858 860 861 861 862 862 863 863 864 864 863 864 864 863 864 865 866 867 868 869 870 870 871 870 871 871
781 784 786 788 790 791 792 794 797 799 802 804 806 808 810 812 815 816 818 820 821 823 825 826 828 829 830 831 832 833 833 834 836 837 837 838 838 839 840 842 843 844 845 846 847 848 849 849 850 850 851 852 853 854 854 853 853 855 855 855 856 859 861 861 861 862 863 864 864 864 864 864 864 864 865 866 867 868 869 870 870 871 871 871 872
780 783 785 787 789 790 792 794 796 799 801 804 805 807 809 812 814 816 817 819 820 822 824 826 827 829 830 831 831 832 833 834 835 836 837 838 838 839 840 841 843 844 845 846 847 848 848 849 850 850 850 851 852 853 854 854 853 855 854 852 853 856 859 860 861 862 863 863 864 864 864 864 865 865 866 867 867 868 869 870 870 871 872 872 873
779 781 783 785 787 789 791 793 796 799 801 802 804 806 808 812 814 815 817 819 820 822 823 825 826 828 829 830 831 831 832 834 835 836 837 837 838 838 839 841 842 843 844 845 846 847 847 848 849 850 850 851 852 853 854 854 854 854 853 852 853 855 857 858 859 861 863 863 864 864 864 865 866 866 867 867 868 869 870 870 871 872 873 873 874
778 780 782 784 786 788 790 793 796 798 800 801 803 805 808 811 813 814 815 817 819 821 822 823 825 827 828 829 830 831 832 834 835 836 836 837 837 838 839 840 841 842 843 844 845 846 846 847 848 849 850 850 851 852 853 854 854 854 853 853 854 855 855 855 857 860 863 863 863 864 865 865 866 867 867 868 868 870 871 871 872 874 874 875 875
777 780 781 783 785 788 790 792 795 797 799 800 802 804 807 810 811 812 814 815 817 819 821 823 824 826 827 828 829 831 832 833 834 835 836 836 837 837 838 839 840 841 842 843 844 845 845 846 848 849 849 850 851 851 852 853 853 854 854 853 854 854 853 853 853 856 859 862 864 865 866 867 867 868 868 869 870 871 872 873 874 875 876 876 877
776 778 781 783 785 787 789 791 794 796 797 799 800 802 805 807 810 811 813 815 816 818 820 822 824 825 826 828 829 830 832 833 834 835 836 836 837 837 838 839 840 840 841 842 843 844 845 846 847 848 849 849 850 850 850 852 852 852 853 854 853 852 852 852 852 851 853 859 864 866 868 868 869 869 870 870 871 871 873 874 875 876 876 877 878
775 777 779 781 783 785 788 790 792 794 795 797 799 801 803 805 808 810 812 814 816 817 819 821 823 825 826 828 829 830 831 832 834 834 835 836 837 837 838 838 839 840 841 842 843 844 844 845 846 847 849 849 850 850 850 851 851 850 852 853 851 851 850 851 852 851 851 856 861 865 868 868 869 871 871 871 872 873 874 874 875 876 877 878 879
773 776 778 780 782 784 786 788 790 793 794 796 798 800 803 805 807 809 811 813 815 817 819 820 822 824 826 828 829 830 831 833 834 834 835 836 837 837 838 838 839 839 840 841 842 843 843 845 846 847 848 849 849 850 850 850 850 850 851 851 850 850 850 850 852 852 852 853 856 862 865 866 868 871 872 872 873 874 875 875 876 877 878 878 879
773 775 776 778 780 782 784 786 788 791 793 795 798 800 803 805 807 810 811 813 815 816 818 820 822 824 825 827 829 830 831 832 833 834 835 836 836 837 837 838 839 839 840 840 841 842 843 844 845 846 848 848 849 850 850 850 850 850 850 850 849 850 850 851 853 854 853 852 854 859 863 864 866 869 871 873 873 874 875 876 876 877 878 879 880